This is the latest recevied weather packets stored in our database for station/object SP3VBV-2. If no packets are shown the sender has not sent any weather packets the latest 10 day(s).
| Time | Temp. | Humidity | Pressure | Rain* | Wind** | Luminosity | Snow |
|---|---|---|---|---|---|---|---|
| 1777990327 | 26.67° C | 29% | 1004.4 hPa | - | - | - | - |
| 1777989732 | 26.67° C | 30% | 1004.6 hPa | - | - | - | - |
| 1777989127 | 26.11° C | 29% | 1004.9 hPa | - | - | - | - |
| 1777988527 | 26.11° C | 30% | 1004.9 hPa | - | - | - | - |
| 1777987927 | 26.11° C | 29% | 1004.8 hPa | - | - | - | - |
| 1777987327 | 25.56° C | 30% | 1004.9 hPa | - | - | - | - |
| 1777986814 | 26.11° C | 30% | 1005.1 hPa | - | - | - | - |
| 1777986127 | 26.11° C | 30% | 1005.2 hPa | - | - | - | - |
| 1777985527 | 26.11° C | 29% | 1005.2 hPa | - | - | - | - |
| 1777984927 | 25.56° C | 30% | 1005.3 hPa | - | - | - | - |
| 1777984327 | 25.56° C | 29% | 1005.4 hPa | - | - | - | - |
| 1777983727 | 25.56° C | 29% | 1005.6 hPa | - | - | - | - |
| 1777983127 | 25° C | 33% | 1005.6 hPa | - | - | - | - |
| 1777982527 | 24.44° C | 33% | 1005.7 hPa | - | - | - | - |
| 1777981928 | 25° C | 32% | 1005.8 hPa | - | - | - | - |
| 1777981327 | 24.44° C | 32% | 1005.9 hPa | - | - | - | - |
| 1777980727 | 23.89° C | 32% | 1006.1 hPa | - | - | - | - |
| 1777980127 | 23.89° C | 33% | 1006 hPa | - | - | - | - |
| 1777979852 | 23.89° C | 30% | 1006.2 hPa | - | - | - | - |
| 1777979524 | 25° C | 29% | 1006.1 hPa | - | - | - | - |
| 1777978920 | 25° C | 28% | 1006.3 hPa | - | - | - | - |
| 1777978320 | 24.44° C | 27% | 1006.3 hPa | - | - | - | - |
| 1777977719 | 24.44° C | 29% | 1006.4 hPa | - | - | - | - |
| 1777977119 | 24.44° C | 27% | 1006.6 hPa | - | - | - | - |
| 1777975927 | 24.44° C | 28% | 1006.6 hPa | - | - | - | - |
* Rain since midnight (hover to see other rain measurements)
** Current wind speed in m/s (hover to see current wind gust speed)